| time (UTC) | temp F | wind direction | speed MPH | gust MPH | rain 1hr in | rain 24hr in | rain mn in | humidity % | barometer mb |
| 20260508124741 | 51 | 275 | 7.0 | 11.0 | 0.00 | 0.03 | 0.03 | 100 | 1118.6 |
| 20260508123740 | 50 | 279 | 4.0 | 7.0 | 0.00 | 0.03 | 0.03 | 100 | 1118.7 |
| 20260508122826 | 50 | 268 | 6.0 | 8.0 | 0.00 | 0.03 | 0.03 | 100 | 1118.6 |
| 20260508121840 | 50 | 264 | 5.0 | 7.0 | 0.00 | 0.03 | 0.03 | 100 | 1118.4 |
| 20260508121741 | 50 | 240 | 5.0 | 9.0 | 0.00 | 0.03 | 0.03 | 100 | 1118.4 |
| 20260508120742 | 49 | 262 | 6.0 | 9.0 | 0.00 | 0.03 | 0.03 | 100 | 1118.4 |
| 20260508115823 | 49 | 279 | 4.0 | 6.0 | 0.00 | 0.03 | 0.03 | 100 | 1118.4 |
| 20260508114840 | 48 | 268 | 6.0 | 11.0 | 0.00 | 0.03 | 0.03 | 100 | 1118.1 |
| 20260508113842 | 47 | 241 | 4.0 | 7.0 | 0.00 | 0.03 | 0.03 | 100 | 1118.1 |
| 20260508112925 | 46 | 254 | 2.0 | 3.0 | 0.00 | 0.03 | 0.03 | 100 | 1118.0 |
| 20260508111941 | 46 | 200 | 5.0 | 7.0 | 0.00 | 0.03 | 0.03 | 100 | 1117.9 |
| 20260508110039 | 45 | 195 | 0.0 | 1.0 | 0.00 | 0.03 | 0.03 | 100 | 1117.6 |
| 20260508105040 | 45 | 180 | 0.0 | 1.0 | 0.00 | 0.03 | 0.03 | 100 | 1117.5 |
| 20260508104041 | 45 | 202 | 1.0 | 1.0 | 0.00 | 0.03 | 0.03 | 100 | 1117.4 |
| 20260508103041 | 45 | 205 | 2.0 | 5.0 | 0.00 | 0.03 | 0.03 | 100 | 1117.4 |
| 20260508102040 | 45 | 173 | 1.0 | 2.0 | 0.00 | 0.03 | 0.03 | 100 | 1117.4 |
| 20260508101041 | 45 | 204 | 2.0 | 2.0 | 0.00 | 0.03 | 0.03 | 100 | 1117.8 |
| 20260508100040 | 45 | 270 | 2.0 | 3.0 | 0.00 | 0.03 | 0.03 | 100 | 1117.7 |
| 20260508095040 | 45 | 183 | 3.0 | 6.0 | 0.00 | 0.03 | 0.03 | 100 | 1117.4 |
| 20260508094040 | 44 | 218 | 2.0 | 3.0 | 0.00 | 0.03 | 0.03 | 100 | 1117.5 |
| 20260508093043 | 44 | 223 | 2.0 | 4.0 | 0.01 | 0.03 | 0.03 | 100 | 1117.5 |
| 20260508092041 | 44 | 180 | 1.0 | 2.0 | 0.01 | 0.03 | 0.03 | 100 | 1117.3 |
| 20260508091125 | 44 | 191 | 1.0 | 3.0 | 0.01 | 0.03 | 0.03 | 100 | 1117.4 |
| 20260508090140 | 45 | 212 | 1.0 | 1.0 | 0.01 | 0.03 | 0.03 | 100 | 1117.5 |
| 20260508085141 | 45 | 247 | 0.0 | 2.0 | 0.02 | 0.03 | 0.03 | 100 | 1117.7 |
| 20260508084240 | 45 | 218 | 2.0 | 4.0 | 0.02 | 0.03 | 0.03 | 100 | 1117.6 |
| 20260508083242 | 45 | 218 | 3.0 | 5.0 | 0.01 | 0.02 | 0.02 | 100 | 1117.4 |
| 20260508082241 | 45 | 222 | 5.0 | 9.0 | 0.01 | 0.02 | 0.02 | 100 | 1117.8 |
| 20260508081341 | 46 | 221 | 3.0 | 5.0 | 0.02 | 0.02 | 0.02 | 100 | 1117.9 |
| 20260508080339 | 46 | 270 | 5.0 | 7.0 | 0.02 | 0.02 | 0.02 | 100 | 1118.2 |
| 20260508075342 | 46 | 262 | 7.0 | 10.0 | 0.01 | 0.01 | 0.01 | 100 | 1118.2 |
| 20260508074440 | 46 | 220 | 9.0 | 14.0 | 0.01 | 0.01 | 0.01 | 100 | 1118.1 |
| 20260508073442 | 45 | 226 | 4.0 | 5.0 | 0.01 | 0.01 | 0.01 | 100 | 1117.9 |
| 20260508072440 | 44 | 214 | 5.0 | 8.0 | 0.01 | 0.01 | 0.01 | 100 | 1118.0 |
| 20260508071443 | 44 | 214 | 2.0 | 4.0 | 0.00 | 0.00 | 0.00 | 100 | 1117.9 |
| 20260508070541 | 44 | 220 | 3.0 | 4.0 | 0.00 | 0.00 | 0.00 | 100 | 1118.1 |
| 20260508065640 | 44 | 203 | 3.0 | 6.0 | 0.00 | 0.00 | 0.00 | 100 | 1118.3 |
| 20260508064640 | 44 | 209 | 3.0 | 5.0 | 0.00 | 0.00 | 0.00 | 100 | 1118.3 |
| 20260508063724 | 45 | 224 | 3.0 | 5.0 | 0.00 | 0.00 | 0.00 | 100 | 1118.4 |
| 20260508062739 | 45 | 218 | 5.0 | 7.0 | 0.00 | 0.00 | 0.00 | 100 | 1118.5 |
| 20260508061839 | 45 | 226 | 3.0 | 5.0 | 0.00 | 0.00 | 0.00 | 100 | 1118.7 |
| 20260508060840 | 46 | 243 | 3.0 | 4.0 | 0.00 | 0.00 | 0.00 | 100 | 1118.9 |
| 20260508054939 | 46 | 247 | 2.0 | 3.0 | 0.00 | 0.00 | 0.00 | 100 | 1119.0 |
| 20260508053941 | 47 | 217 | 3.0 | 4.0 | 0.00 | 0.00 | 0.00 | 100 | 1118.9 |
| 20260508053039 | 47 | 256 | 2.0 | 4.0 | 0.00 | 0.00 | 0.00 | 100 | 1118.9 |
| 20260508051138 | 47 | 202 | 2.0 | 2.0 | 0.00 | 0.00 | 0.00 | 100 | 1118.9 |
| 20260508043141 | 46 | 157 | 0.0 | 0.0 | 0.00 | 0.00 | 0.00 | 100 | 1118.8 |
| 20260508041141 | 46 | 225 | 0.0 | 0.0 | 0.00 | 0.00 | 0.00 | 100 | 1118.7 |
| 20260508040240 | 47 | 225 | 0.0 | 0.0 | 0.00 | 0.00 | 0.00 | 100 | 1118.8 |
| 20260508035334 | 47 | 225 | 1.0 | 2.0 | 0.00 | 0.00 | 0.00 | 100 | 1118.8 |
| 20260508034334 | 48 | 247 | 1.0 | 1.0 | 0.00 | 0.00 | 0.00 | 100 | 1119.1 |
| 20260508033335 | 48 | 225 | 0.0 | 1.0 | 0.00 | 0.00 | 0.00 | 100 | 1119.1 |
| 20260508031335 | 48 | 247 | 0.0 | 1.0 | 0.00 | 0.00 | 0.00 | 100 | 1119.1 |
| 20260508030337 | 48 | 247 | 1.0 | 2.0 | 0.00 | 0.00 | 0.00 | 100 | 1119.3 |
| 20260508025336 | 49 | 247 | 1.0 | 2.0 | 0.00 | 0.00 | 0.00 | 100 | 1119.4 |
| 20260508024337 | 49 | 276 | 2.0 | 4.0 | 0.00 | 0.00 | 0.00 | 100 | 1119.4 |
| 20260508023336 | 49 | 281 | 3.0 | 4.0 | 0.00 | 0.00 | 0.00 | 100 | 1119.4 |
| 20260508022336 | 49 | 287 | 5.0 | 7.0 | 0.00 | 0.00 | 0.00 | 100 | 1119.3 |
| 20260508015534 | 50 | 296 | 11.0 | 18.0 | 0.00 | 0.00 | 0.00 | 100 | 1119.4 |
| 20260508014536 | 50 | 284 | 3.0 | 5.0 | 0.00 | 0.00 | 0.00 | 100 | 1119.1 |
| 20260508013537 | 50 | 290 | 4.0 | 7.0 | 0.00 | 0.00 | 0.00 | 100 | 1118.9 |
| 20260508012635 | 49 | 225 | 2.0 | 3.0 | 0.00 | 0.00 | 0.00 | 100 | 1118.7 |
| 20260508011635 | 49 | 257 | 2.0 | 3.0 | 0.00 | 0.00 | 0.00 | 100 | 1118.7 |
| 20260508010635 | 49 | 225 | 0.0 | 0.0 | 0.00 | 0.00 | 0.00 | 100 | 1118.4 |
| 20260508005721 | 49 | 233 | 1.0 | 2.0 | 0.00 | 0.00 | 0.00 | 100 | 1118.4 |
| 20260508004735 | 49 | 247 | 0.0 | 1.0 | 0.00 | 0.00 | 0.00 | 100 | 1118.3 |
| 20260508002735 | 50 | 247 | 1.0 | 2.0 | 0.00 | 0.00 | 0.00 | 100 | 1118.2 |
| 20260508001736 | 50 | 247 | 1.0 | 2.0 | 0.00 | 0.00 | 0.00 | 100 | 1118.2 |
| 20260508000819 | 51 | 265 | 2.0 | 2.0 | 0.00 | 0.00 | 0.00 | 100 | 1118.1 |
| 20260507235836 | 52 | 270 | 2.0 | 3.0 | 0.00 | 0.00 | 0.00 | 100 | 1118.1 |
| 20260507234836 | 53 | 291 | 4.0 | 6.0 | 0.00 | 0.00 | 0.00 | 100 | 1118.0 |
| 20260507233935 | 54 | 290 | 5.0 | 7.0 | 0.00 | 0.00 | 0.00 | 100 | 1118.1 |
| 20260507233021 | 54 | 276 | 6.0 | 9.0 | 0.00 | 0.00 | 0.00 | 100 | 1118.1 |
| 20260507232035 | 54 | 270 | 3.0 | 6.0 | 0.00 | 0.00 | 0.00 | 100 | 1118.1 |
| 20260507231037 | 54 | 277 | 3.0 | 6.0 | 0.00 | 0.00 | 0.00 | 100 | 1118.2 |
| 20260507230135 | 53 | 284 | 4.0 | 6.0 | 0.00 | 0.00 | 0.00 | 100 | 1118.1 |
| 20260507225137 | 53 | 278 | 6.0 | 8.0 | 0.00 | 0.00 | 0.00 | 100 | 1118.2 |
| 20260507223136 | 56 | 291 | 7.0 | 11.0 | 0.00 | 0.00 | 0.00 | 100 | 1118.3 |
| 20260507222135 | 56 | 271 | 5.0 | 8.0 | 0.00 | 0.00 | 0.00 | 100 | 1118.2 |
| 20260507221219 | 56 | 286 | 7.0 | 11.0 | 0.00 | 0.00 | 0.00 | 100 | 1118.4 |
| 20260507220236 | 56 | 313 | 4.0 | 6.0 | 0.00 | 0.00 | 0.00 | 100 | 1118.2 |
| 20260507215335 | 56 | 286 | 12.0 | 20.0 | 0.00 | 0.00 | 0.00 | 100 | 1118.2 |
| 20260507212520 | 55 | 287 | 7.0 | 11.0 | 0.00 | 0.00 | 0.00 | 100 | 1118.2 |
| 20260507211537 | 55 | 300 | 7.0 | 12.0 | 0.00 | 0.00 | 0.00 | 100 | 1118.0 |
| 20260507210537 | 56 | 281 | 6.0 | 8.0 | 0.00 | 0.00 | 0.00 | 100 | 1118.0 |
| 20260507205536 | 54 | 291 | 10.0 | 14.0 | 0.00 | 0.00 | 0.00 | 100 | 1117.8 |
| 20260507203637 | 55 | 287 | 9.0 | 13.0 | 0.00 | 0.00 | 0.00 | 100 | 1117.9 |
| 20260507201734 | 55 | 285 | 8.0 | 11.0 | 0.00 | 0.00 | 0.00 | 100 | 1117.6 |
| 20260507200737 | 55 | 280 | 9.0 | 13.0 | 0.00 | 0.00 | 0.00 | 100 | 1117.9 |
| 20260507194835 | 53 | 283 | 9.0 | 14.0 | 0.00 | 0.00 | 0.00 | 100 | 1118.0 |
| 20260507193922 | 54 | 299 | 10.0 | 16.0 | 0.00 | 0.00 | 0.00 | 100 | 1118.2 |
| 20260507192934 | 53 | 291 | 9.0 | 14.0 | 0.00 | 0.00 | 0.00 | 100 | 1118.3 |
| 20260507191934 | 53 | 287 | 7.0 | 14.0 | 0.00 | 0.00 | 0.00 | 100 | 1118.3 |
| 20260507190936 | 54 | 278 | 8.0 | 12.0 | 0.00 | 0.00 | 0.00 | 100 | 1118.5 |
| 20260507185934 | 54 | 281 | 11.0 | 17.0 | 0.00 | 0.00 | 0.00 | 100 | 1118.3 |
| 20260507183935 | 54 | 282 | 9.0 | 13.0 | 0.00 | 0.00 | 0.00 | 100 | 1118.4 |
| 20260507183034 | 54 | 278 | 8.0 | 12.0 | 0.00 | 0.00 | 0.00 | 100 | 1118.5 |
| 20260507182038 | 53 | 230 | 6.0 | 9.0 | 0.00 | 0.00 | 0.00 | 100 | 1118.3 |
| 20260507181135 | 54 | 267 | 9.0 | 18.0 | 0.00 | 0.00 | 0.00 | 100 | 1118.6 |
| 20260507175235 | 53 | 281 | 8.0 | 12.0 | 0.00 | 0.00 | 0.00 | 100 | 1118.6 |
| 20260507174235 | 53 | 277 | 8.0 | 15.0 | 0.00 | 0.00 | 0.00 | 100 | 1118.9 |
| 20260507173318 | 53 | 269 | 6.0 | 10.0 | 0.00 | 0.00 | 0.00 | 100 | 1118.7 |
| 20260507172336 | 54 | 270 | 11.0 | 18.0 | 0.00 | 0.00 | 0.00 | 100 | 1118.9 |
| 20260507172237 | 54 | 266 | 7.0 | 13.0 | 0.00 | 0.00 | 0.00 | 100 | 1118.9 |
| 20260507170435 | 52 | 237 | 5.0 | 9.0 | 0.00 | 0.00 | 0.00 | 100 | 1118.7 |
| 20260507165433 | 53 | 267 | 6.0 | 11.0 | 0.00 | 0.00 | 0.00 | 100 | 1118.8 |
| 20260507164418 | 52 | 280 | 9.0 | 14.0 | 0.00 | 0.00 | 0.00 | 100 | 1119.0 |
| 20260507162534 | 53 | 275 | 7.0 | 10.0 | 0.00 | 0.00 | 0.00 | 100 | 1118.8 |
| 20260507155534 | 51 | 273 | 4.0 | 6.0 | 0.00 | 0.00 | 0.00 | 100 | 1119.0 |
| 20260507154536 | 52 | 283 | 6.0 | 8.0 | 0.00 | 0.00 | 0.00 | 100 | 1118.9 |
| 20260507153635 | 52 | 286 | 7.0 | 10.0 | 0.00 | 0.00 | 0.00 | 100 | 1118.9 |
| 20260507152636 | 51 | 268 | 5.0 | 7.0 | 0.00 | 0.00 | 0.00 | 100 | 1118.9 |
| 20260507151733 | 51 | 290 | 3.0 | 6.0 | 0.00 | 0.00 | 0.00 | 100 | 1118.9 |
| 20260507151635 | 51 | 268 | 4.0 | 6.0 | 0.00 | 0.00 | 0.00 | 100 | 1118.9 |
| 20260507150635 | 50 | 257 | 3.0 | 7.0 | 0.00 | 0.00 | 0.00 | 100 | 1119.0 |
| 20260507145635 | 50 | 274 | 5.0 | 8.0 | 0.00 | 0.00 | 0.00 | 100 | 1119.0 |
| 20260507144635 | 50 | 248 | 5.0 | 9.0 | 0.00 | 0.00 | 0.00 | 100 | 1119.1 |
| 20260507143636 | 49 | 263 | 4.0 | 6.0 | 0.00 | 0.00 | 0.00 | 100 | 1119.1 |
| 20260507142735 | 49 | 259 | 5.0 | 7.0 | 0.00 | 0.00 | 0.00 | 100 | 1118.9 |
| 20260507141834 | 49 | 290 | 5.0 | 8.0 | 0.00 | 0.00 | 0.00 | 100 | 1119.0 |
| 20260507140838 | 48 | 212 | 4.0 | 7.0 | 0.00 | 0.00 | 0.00 | 100 | 1119.1 |
| 20260507134133 | 46 | 231 | 3.0 | 4.0 | 0.00 | 0.00 | 0.00 | 100 | 1119.2 |
| 20260507133135 | 45 | 270 | 5.0 | 7.0 | 0.00 | 0.00 | 0.00 | 100 | 1119.0 |
| 20260507132135 | 45 | 280 | 6.0 | 8.0 | 0.00 | 0.00 | 0.00 | 100 | 1119.0 |
| 20260507130234 | 44 | 262 | 4.0 | 7.0 | 0.00 | 0.00 | 0.00 | 100 | 1119.1 |